Location: Moscow
(38.8570°N, 84.2291°W)
Time: 19:02:06
(UTC+00:00)

Meteor 2-12 Rocket - Pass Details

Date: 15 November 2025
Orbit: 934 x 958 km, 82.5° (Epoch: 11 December)

Event Time Altitude Azimuth Distance (km) Brightness Sun altitude
Rises 23:10:29 0° 357° (N) 3,621 7.3 -9.5°
Reaches altitude 10° 23:13:03 10° 2° (N) 2,669 6.6 -10.0°
Maximum altitude 23:19:01 55° 79° (E) 1,122 4.5 -11.1°
Drops below altitude 10° 23:24:55 10° 157° (SSE) 2,639 6.7 -12.2°
Sets 23:27:26 0° 161° (SSE) 3,578 7.4 -12.7°
